Location: Newark
(46.5000°N, 6.3833°E)
Time: 23:53:12
(UTC+00:00)

ISS - Visible Passes

Search period start: 23 August 2019 00:00
Search period end: 02 September 2019 00:00
Orbit: 410 x 421 km, 51.6° (Epoch: 24 August)

Date Brightness Start Highest point End Pass type
(mag) Time Alt. Az. Time Alt. Az. Time Alt. Az.
28 Aug -1.4 03:36:09 10° S 03:38:27 18° SE 03:40:47 10° E visible
29 Aug -1.0 02:49:03 10° SE 02:49:51 11° SE 02:50:42 10° ESE visible
30 Aug -2.9 03:35:12 19° SSW 03:37:13 40° SE 03:40:23 10° ENE visible
31 Aug -2.2 02:48:24 25° SE 02:48:29 25° SE 02:51:18 10° E visible
31 Aug -3.5 04:21:41 10° WSW 04:25:00 63° NNW 04:28:20 10° ENE visible
01 Sep -0.8 02:01:33 12° E 02:01:33 12° E 02:01:55 10° E visible
01 Sep -3.8 03:34:25 27° WSW 03:36:06 90° SSE 03:39:28 10° ENE visible
